Overview Statistics Trail Chart Weather Telemetry Raw packets
 

This is the latest recevied weather packets stored in our database for station/object KC8SWY-15. If no packets are shown the sender has not sent any weather packets the latest 10 day(s).

<< 12 13 14 15 16 17 18 >>
Time Temp. Humidity Pressure Rain* Wind** Luminosity Snow
1788598525 18.89° C 96% 1012.2 hPa 0.25 mm - - -
1788598225 18.89° C 96% 1012.3 hPa 0.25 mm - - -
1788597925 18.89° C 96% 1012.3 hPa 0.25 mm - - -
1788597625 18.89° C 96% 1012.5 hPa 0.25 mm - - -
1788597325 18.89° C 95% 1012.3 hPa 0 mm - - -
1788597068 18.89° C 95% 1012.3 hPa 0 mm - - -
1788597025 18.89° C 95% 1012.3 hPa 0 mm - - -
1788596725 18.89° C 95% 1012.2 hPa 0 mm - - -
1788596425 18.89° C 95% 1012 hPa 0 mm - - -
1788596194 18.89° C 95% 1011.8 hPa 0 mm - - -
1788596125 18.89° C 95% 1011.8 hPa 0 mm - - -
1788595825 18.89° C 95% 1011.7 hPa 0 mm - - -
1788595525 18.89° C 95% 1011.8 hPa 0 mm - - -
1788595225 18.89° C 95% 1011.6 hPa 0 mm - - -
1788594925 18.89° C 95% 1011.5 hPa 0 mm - - -
1788594625 18.89° C 95% 1011.4 hPa 0 mm - - -
1788594325 19.44° C 95% 1011.5 hPa 0 mm - - -
1788594025 19.44° C 95% 1011.5 hPa 0.25 mm - - -
1788593725 19.44° C 95% 1011.3 hPa 0.51 mm - - -
1788593475 19.44° C 95% 1011.3 hPa 0.76 mm - - -
1788593425 19.44° C 95% 1011.3 hPa 0.76 mm - - -
1788593125 19.44° C 95% 1011.4 hPa 1.78 mm - - -
1788592825 19.44° C 95% 1011.3 hPa 6.35 mm - - -
1788592598 19.44° C 95% 1011.2 hPa 9.4 mm - - -
1788592525 19.44° C 95% 1011.2 hPa 9.4 mm - - -

* Rain latest hour (hover to see other rain measurements)
** Current wind speed in m/s (hover to see current wind gust speed)